| time (UTC) | temp F | wind direction | speed MPH | gust MPH | rain 1hr in | rain 24hr in | rain mn in | humidity % | barometer mb |
| 20260502164016 | 63 | 45 | 9.0 | 17.0 | 0.00 | 0.08 | 0.00 | 74 | 1024.9 |
| 20260502162016 | 62 | 45 | 9.0 | 15.0 | 0.00 | 0.17 | 0.00 | 75 | 1024.9 |
| 20260502161017 | 62 | 67 | 9.0 | 13.0 | 0.00 | 0.17 | 0.00 | 76 | 1025.0 |
| 20260502152016 | 59 | 45 | 9.0 | 13.0 | 0.00 | 0.17 | 0.00 | 79 | 1025.0 |
| 20260502151016 | 57 | 45 | 9.0 | 12.0 | 0.00 | 0.17 | 0.00 | 80 | 1024.7 |
| 20260502123016 | 44 | 337 | 5.0 | 6.0 | 0.00 | 0.21 | 0.00 | 98 | 1021.8 |
| 20260502122016 | 43 | 315 | 3.0 | 5.0 | 0.00 | 0.25 | 0.00 | 98 | 1021.9 |
| 20260502121016 | 43 | 315 | 3.0 | 4.0 | 0.00 | 0.27 | 0.00 | 98 | 1021.7 |
| 20260502114016 | 43 | 337 | 4.0 | 6.0 | 0.00 | 0.29 | 0.00 | 98 | 1021.2 |
| 20260502113021 | 43 | 0 | 5.0 | 6.0 | 0.00 | 0.33 | 0.00 | 98 | 1020.9 |
| 20260502112016 | 43 | 337 | 4.0 | 5.0 | 0.00 | 0.34 | 0.00 | 97 | 1020.9 |
| 20260502111021 | 43 | 337 | 3.0 | 5.0 | 0.00 | 0.35 | 0.00 | 97 | 1021.2 |
| 20260502110117 | 43 | 337 | 3.0 | 5.0 | 0.00 | 0.35 | 0.00 | 97 | 1020.9 |
| 20260502105016 | 43 | 337 | 4.0 | 6.0 | 0.00 | 0.35 | 0.00 | 97 | 1021.0 |
| 20260502104118 | 43 | 315 | 4.0 | 5.0 | 0.00 | 0.35 | 0.00 | 97 | 1020.9 |
| 20260502103017 | 43 | 315 | 2.0 | 3.0 | 0.00 | 0.35 | 0.00 | 97 | 1021.1 |
| 20260502102016 | 44 | 315 | 2.0 | 3.0 | 0.00 | 0.35 | 0.00 | 97 | 1020.7 |
| 20260502091016 | 45 | 0 | 4.0 | 6.0 | 0.00 | 0.48 | 0.00 | 96 | 1019.6 |
| 20260502070017 | 47 | 22 | 8.0 | 11.0 | 0.00 | 0.52 | 0.00 | 97 | |
| 20260502065016 | 47 | 22 | 8.0 | 12.0 | 0.00 | 0.52 | 0.00 | 97 | 1018.9 |
| 20260502064016 | 47 | 22 | 8.0 | 12.0 | 0.00 | 0.53 | 0.00 | 97 | 1018.9 |
| 20260502063017 | 47 | 22 | 7.0 | 12.0 | 0.00 | 0.55 | 0.00 | 97 | 1019.2 |
| 20260502062017 | 47 | 22 | 8.0 | 11.0 | 0.00 | 0.57 | 0.00 | 98 | 1019.2 |
| 20260502061017 | 47 | 5 | 7.0 | 0.0 | 0.00 | 0.57 | 0.00 | 98 | 1019.3 |
| 20260502060016 | 47 | 0 | 7.0 | 11.0 | 0.00 | 0.57 | 0.00 | 97 | 1019.3 |
| 20260502054017 | 47 | 22 | 6.0 | 10.0 | 0.00 | 0.57 | 0.00 | 97 | 1019.1 |
| 20260502053016 | 47 | 0 | 6.0 | 9.0 | 0.00 | 0.58 | 0.00 | 97 | 1019.4 |
| 20260502052016 | 46 | 0 | 6.0 | 9.0 | 0.00 | 0.58 | 0.00 | 97 | 1019.2 |
| 20260502051017 | 46 | 22 | 5.0 | 8.0 | 0.00 | 0.58 | 0.00 | 97 | 1018.8 |
| 20260502050017 | 47 | 22 | 5.0 | 9.0 | 0.00 | 0.58 | 0.57 | 97 | 1018.6 |
| 20260502045016 | 47 | 45 | 7.0 | 11.0 | 0.00 | 0.58 | 0.57 | 96 | 1018.6 |
| 20260502044016 | 47 | 45 | 5.0 | 11.0 | 0.00 | 0.58 | 0.57 | 96 | 1018.8 |
| 20260502043016 | 47 | 45 | 7.0 | 10.0 | 0.00 | 0.58 | 0.57 | 96 | 1018.6 |
| 20260502042016 | 47 | 45 | 6.0 | 10.0 | 0.00 | 0.58 | 0.57 | 96 | 1018.8 |
| 20260502041016 | 47 | 45 | 6.0 | 9.0 | 0.00 | 0.58 | 0.57 | 95 | 1018.8 |
| 20260502035016 | 48 | 45 | 6.0 | 9.0 | 0.00 | 0.58 | 0.57 | 95 | 1018.8 |
| 20260502034016 | 48 | 22 | 5.0 | 7.0 | 0.00 | 0.58 | 0.57 | 95 | 1018.8 |
| 20260502032017 | 48 | 45 | 8.0 | 12.0 | 0.00 | 0.59 | 0.57 | 95 | 1018.3 |
| 20260502031016 | 48 | 45 | 6.0 | 10.0 | 0.00 | 0.59 | 0.57 | 95 | 1018.4 |
| 20260502030016 | 48 | 22 | 6.0 | 10.0 | 0.00 | 0.59 | 0.57 | 95 | 1018.0 |
| 20260502025021 | 48 | 45 | 7.0 | 11.0 | 0.00 | 0.59 | 0.57 | 94 | 1018.0 |
| 20260502024021 | 49 | 45 | 9.0 | 12.0 | 0.00 | 0.59 | 0.57 | 93 | |
| 20260502023016 | 49 | 45 | 10.0 | 14.0 | 0.00 | 0.59 | 0.57 | 93 | 1017.8 |
| 20260502022016 | 49 | 45 | 12.0 | 17.0 | 0.00 | 0.60 | 0.57 | 94 | 1017.6 |
| 20260502021016 | 50 | 45 | 15.0 | 21.0 | 0.00 | 0.61 | 0.57 | 95 | 1017.3 |
| 20260502020017 | 50 | 45 | 10.0 | 16.0 | 0.00 | 0.63 | 0.57 | 96 | 1017.1 |
| 20260502015016 | 50 | 45 | 10.0 | 16.0 | 0.00 | 0.64 | 0.57 | 96 | 1017.0 |
| 20260502014116 | 51 | 45 | 11.0 | 16.0 | 0.00 | 0.66 | 0.57 | 96 | 1017.0 |
| 20260502013017 | 51 | 45 | 13.0 | 19.0 | 0.00 | 0.71 | 0.57 | 96 | 1017.0 |
| 20260502012017 | 51 | 45 | 13.0 | 18.0 | 0.00 | 0.73 | 0.57 | 96 | 1016.6 |
| 20260502011016 | 51 | 45 | 12.0 | 17.0 | 0.00 | 0.76 | 0.57 | 96 | 1016.4 |
| 20260502010016 | 51 | 45 | 13.0 | 18.0 | 0.00 | 0.80 | 0.57 | 95 | 1015.9 |
| 20260502005018 | 51 | 45 | 13.0 | 18.0 | 0.00 | 0.81 | 0.57 | 96 | 1016.0 |
| 20260502004016 | 51 | 45 | 14.0 | 19.0 | 0.00 | 0.81 | 0.57 | 96 | 1016.0 |
| 20260502003016 | 51 | 45 | 14.0 | 21.0 | 0.00 | 0.81 | 0.57 | 96 | 1015.7 |
| 20260502002016 | 51 | 45 | 15.0 | 21.0 | 0.00 | 0.81 | 0.57 | 96 | 1015.6 |
| 20260502001016 | 51 | 45 | 18.0 | 27.0 | 0.00 | 0.81 | 0.57 | 97 | 1015.4 |
| 20260502000016 | 51 | 45 | 17.0 | 25.0 | 0.00 | 0.81 | 0.57 | 97 | 1015.2 |
| 20260501235016 | 51 | 45 | 19.0 | 30.0 | 0.00 | 0.81 | 0.57 | 97 | 1014.9 |
| 20260501234116 | 51 | 22 | 15.0 | 23.0 | 0.00 | 0.81 | 0.57 | 96 | 1014.9 |
| 20260501233016 | 52 | 45 | 17.0 | 23.0 | 0.00 | 0.81 | 0.57 | 96 | 1014.6 |
| 20260501231117 | 52 | 45 | 14.0 | 19.0 | 0.00 | 0.81 | 0.57 | 97 | 1014.0 |
| 20260501230018 | 52 | 45 | 17.0 | 22.0 | 0.00 | 0.81 | 0.57 | 97 | 1013.9 |
| 20260501225017 | 53 | 0.0 | 0.0 | 0.00 | 0.81 | 0.57 | 97 | 1013.8 | |
| 20260501224118 | 53 | 0.0 | 0.0 | 0.00 | 0.81 | 0.57 | 98 | 1013.9 | |
| 20260501223015 | 52 | 53 | 11.0 | 0.0 | 0.00 | 0.81 | 0.57 | 98 | 1013.9 |
| 20260501221016 | 52 | 22 | 15.0 | 22.0 | 0.00 | 0.81 | 0.57 | 99 | 1013.8 |
| 20260501220016 | 52 | 45 | 15.0 | 23.0 | 0.00 | 0.81 | 0.57 | 99 | 1013.8 |
| 20260501215017 | 52 | 22 | 11.0 | 20.0 | 0.00 | 0.81 | 0.57 | 99 | 1013.8 |
| 20260501214017 | 53 | 22 | 13.0 | 22.0 | 0.00 | 0.81 | 0.57 | 99 | 1013.5 |
| 20260501213017 | 53 | 22 | 13.0 | 21.0 | 0.00 | 0.81 | 0.57 | 99 | 1013.6 |
| 20260501212017 | 53 | 22 | 14.0 | 20.0 | 0.01 | 0.81 | 0.57 | 99 | 1013.6 |
| 20260501211017 | 53 | 0 | 16.0 | 26.0 | 0.01 | 0.81 | 0.57 | 99 | 1013.9 |
| 20260501210016 | 53 | 0 | 12.0 | 16.0 | 0.02 | 0.81 | 0.57 | 99 | 1014.1 |
| 20260501205016 | 53 | 22 | 11.0 | 16.0 | 0.02 | 0.81 | 0.57 | 99 | 1014.3 |
| 20260501204016 | 53 | 0 | 11.0 | 18.0 | 0.02 | 0.81 | 0.57 | 99 | 1014.6 |
| 20260501203016 | 53 | 0 | 12.0 | 20.0 | 0.02 | 0.81 | 0.57 | 99 | 1014.6 |
| 20260501202018 | 53 | 0 | 11.0 | 17.0 | 0.02 | 0.80 | 0.56 | 99 | 1014.7 |
| 20260501201016 | 54 | 0 | 11.0 | 17.0 | 0.02 | 0.80 | 0.56 | 99 | 1014.8 |
| 20260501200017 | 54 | 22 | 11.0 | 16.0 | 0.01 | 0.79 | 0.56 | 99 | 1014.6 |
| 20260501195017 | 54 | 0 | 10.0 | 16.0 | 0.01 | 0.79 | 0.56 | 99 | 1014.6 |
| 20260501194016 | 54 | 0 | 10.0 | 16.0 | 0.01 | 0.79 | 0.56 | 99 | 1014.4 |
| 20260501192017 | 0 | 22 | 12.0 | 17.0 | 0.00 | 0.78 | 0.55 | ||
| 20260501191017 | 0 | 22 | 12.0 | 20.0 | 0.00 | 0.78 | 0.55 | ||
| 20260501190023 | 0 | 45 | 13.0 | 19.0 | 0.00 | 0.78 | 0.55 | ||
| 20260501185017 | 55 | 22 | 13.0 | 21.0 | 0.00 | 0.78 | 0.55 | 100 | 1013.5 |
| 20260501184017 | 55 | 45 | 13.0 | 19.0 | 0.00 | 0.78 | 0.55 | 100 | 1013.4 |
| 20260501183017 | 55 | 45 | 14.0 | 20.0 | 0.00 | 0.78 | 0.55 | 100 | 1013.4 |
| 20260501182022 | 56 | 45 | 15.0 | 20.0 | 0.00 | 0.78 | 0.55 | 100 | 1013.7 |
| 20260501181017 | 56 | 45 | 13.0 | 18.0 | 0.00 | 0.78 | 0.55 | 100 | 1013.3 |
| 20260501180117 | 56 | 45 | 14.0 | 22.0 | 0.02 | 0.78 | 0.55 | 100 | 1013.5 |
| 20260501175017 | 56 | 45 | 16.0 | 21.0 | 0.04 | 0.78 | 0.55 | 100 | 1013.3 |
| 20260501174017 | 56 | 45 | 13.0 | 21.0 | 0.05 | 0.78 | 0.55 | 100 | 1013.2 |
| 20260501173017 | 56 | 45 | 15.0 | 20.0 | 0.10 | 0.78 | 0.55 | 100 | 1013.3 |
| 20260501172117 | 56 | 45 | 14.0 | 22.0 | 0.13 | 0.78 | 0.55 | 100 | 1013.5 |
| 20260501171017 | 56 | 67 | 13.0 | 19.0 | 0.13 | 0.78 | 0.55 | 100 | 1013.1 |